User: anonymous   Login
Location: Maiden_LMO
(35.5760°N, 81.2120°W)
Time: 16:39:43
(UTC-04:00)
Language:

Cosmos 2278 Rocket - Orbit

View from above orbital plane
View from above orbital plane
View from above satellite
View from above satellite

Ground track
Ground track

The orbit data is extracted from the following two-line orbital elements,

1 23088U 94023B   17088.22976446 -.00000123 +00000-0 -39265-4 0  9990
2 23088 070.9989 089.8734 0005312 243.0701 116.9879 14.14656858183968
Epoch (UTC): 29 March 2017 05:30:51
Eccentricity: 0.0005312
inclination: 70.9989°
perigee height: 839 km
apogee height: 847 km
right ascension of ascending node: 89.8734°
argument of perigee: 243.0701°
revolutions per day: 14.14656858
mean anomaly at epoch: 116.9879°
orbit number at epoch: 18396

The dashed part of the orbit path shows where the satellite is in the earth's shadow,  

DLR